Regional Weather Roundup
Issued by NWS

Home | Current Version | Previous Version | Graphics & Text | Print | Product List | Glossary Off
Versions: 1 2 3 4 5 6 7 8 9 10 11 12 13 14 15 16 17 18 19 20 21 22 23 24 25 26 27 28 29 30 31 32 33 34 35 36 37 38 39 40 41 42 43 44 45 46 47 48 49 50

000
ASUS43 KTOP 261759
RWRKS

WEATHER ROUNDUP FOR KANSAS
NATIONAL WEATHER SERVICE GOODLAND KS
1200 PM CST WED NOV 26 2014

NOTE:  "FAIR" INDICATES FEW OR NO CLOUDS BELOW 12,000 FEET WITH NO
SIGNIFICANT WEATHER AND/OR OBSTRUCTIONS TO VISIBILITY.

KSZ001>006-013>018-027>032-041>047-261900-
NORTHWEST KANSAS

CITY           SKY/WX    TMP DP  RH WIND       PRES   REMARKS
GOODLAND       CLOUDY    34  26  72 N15       30.27S WCI  24
6HR MIN TEMP:  30; 6HR MAX TEMP:  37;

HAYS           CLOUDY    39  18  41 N24G33    30.24R WCI  28
HILL CITY      CLOUDY    37  19  48 N23G31    30.26R WCI  26
6HR MIN TEMP:  36; 6HR MAX TEMP:  39;

RUSSELL        FAIR      40  22  48 NW24      30.22R WCI  29
6HR MIN TEMP:  34; 6HR MAX TEMP:  41;

$$

KSZ061>065-074>080-084>089-261900-
SOUTHWEST KANSAS

CITY           SKY/WX    TMP DP  RH WIND       PRES   REMARKS
DODGE CITY     PTSUNNY   43  20  39 N22G30    30.24F
6HR MIN TEMP:  37; 6HR MAX TEMP:  44;

ELKHART          N/A     42  20  41 NW9         N/A
GARDEN CITY    CLOUDY    43  20  39 N21G29    30.26S
6HR MIN TEMP:  33; 6HR MAX TEMP:  43;

GREAT BEND     CLOUDY    41  19  42 N23       30.24R
LIBERAL        FAIR      45  27  49 N18       30.29S
$$

KSZ066>073-081>083-090>101-261900-
SOUTHEAST KANSAS

CITY           SKY/WX    TMP DP  RH WIND       PRES   REMARKS
CHANUTE        CLOUDY    47  25  42 NW24G35   30.08R
6HR MIN TEMP:  33; 6HR MAX TEMP:  50;

COFFEYVILLE    PTSUNNY   50  26  39 NW18G30   30.09R
6HR MIN TEMP:  40; 6HR MAX TEMP:  51;

HUTCHINSON     FAIR      46  22  38 NW26G39   30.17S
6HR MIN TEMP:  42; 6HR MAX TEMP:  47;

MEDICINE LODGE   N/A     49  25  39 NW22G35   30.18F
NEWTON         PTSUNNY   45  21  39 N28G38    30.15R
PARSONS        CLOUDY    50  26  39 NW21G28   30.10R
6HR MIN TEMP:  33; 6HR MAX TEMP:  52;

WICHITA INTL   FAIR      48  22  35 N25G37    30.15R
6HR MIN TEMP:  43; 6HR MAX TEMP:  49;

WICHITA JABRA  FAIR      47  24  40 NW26G37   30.14S
6HR MIN TEMP:  40; 6HR MAX TEMP:  47;

WICHITA MCCONL FAIR      47  21  35 N24G37    30.14S
WINFIELD       FAIR      50  26  39 NW29G39   30.16S
6HR MIN TEMP:  38; 6HR MAX TEMP:  50;

$$

KSZ007>012-019>026-033>040-048>060-102>105-261900-
NORTHEAST KANSAS

CITY           SKY/WX    TMP DP  RH WIND       PRES   REMARKS
CONCORDIA      CLOUDY    34  23  64 N21G28    30.17R WCI  22
6HR MIN TEMP:  34; 6HR MAX TEMP:  40;

EMPORIA        FAIR      44  23  43 NW23G33   30.08S
6HR MIN TEMP:  35; 6HR MAX TEMP:  46;

LAWRENCE       PTSUNNY   42  28  57 NW26G35   30.04R
6HR MIN TEMP:  35; 6HR MAX TEMP:  44;

MANHATTAN      CLOUDY    39  25  57 N12G25    30.14R WCI  32
6HR MIN TEMP:  39; 6HR MAX TEMP:  44;

OLATHE IND     CLOUDY    42  31  64 NW17      30.02R
6HR MIN TEMP:  35; 6HR MAX TEMP:  42;

OLATHE EXE     CLOUDY    41  30  65 NW16G30   30.00S
6HR MIN TEMP:  36; 6HR MAX TEMP:  42;

SALINA         PTSUNNY   45  23  42 N28G36    30.17R
6HR MIN TEMP:  39; 6HR MAX TEMP:  45;

TOPEKA BILLARD PTSUNNY   43  27  53 NW25G36   30.08R
6HR MIN TEMP:  39; 6HR MAX TEMP:  46;

TOPEKA FORBES  PTSUNNY   44  26  49 NW25G35   30.06R
6HR MIN TEMP:  38; 6HR MAX TEMP:  47;

$$


USA.gov is the U.S. government's official web portal to all federal, state and local government web resources and services.